Location: Ellertshaar
(52.8932°N, 6.7364°E)
Time: 14:38:36
(UTC+00:00)

Daily predictions for brighter satellites

Satellite Brightness Start Highest point End
(mag) Time Altitude Azimuth Time Altitude Azimuth Time Altitude Azimuth
Cosmos 1980 Rocket 2.5 19:44:51 10° NNW 19:50:33 63° NE 19:56:11 10° SE
SL-08 R/B 3.7 19:46:04 10° NNE 19:50:46 46° E 19:55:23 10° S
Okean 1 Rocket 3.2 19:50:15 10° S 19:54:31 55° E 19:58:52 10° NNE
Meteor 2-3 Rocket 3.8 19:50:21 10° NNW 19:56:01 88° WSW 20:01:40 10° S
Cosmos 2084 3.4 19:54:02 10° SW 19:58:11 90° NNW 20:02:21 10° NE
SPOT 3 Rocket 4.2 19:54:37 10° SE 19:59:24 41° ENE 20:04:13 10° N
CZ-4 R/B 2.8 19:57:10 10° SSW 20:00:29 33° W 20:03:49 10° NNW
Cosmos 1850 Rocket 4.0 19:55:19 10° NNW 20:00:31 80° ENE 20:05:41 10° SSE
CZ-4B R/B 3.6 19:58:48 10° SE 20:01:43 28° ENE 20:04:40 10° N
Cosmos 1782 3.8 19:59:39 10° SE 20:02:27 23° E 20:05:16 10° NE
ASTEX 1 4.3 20:02:03 10° SSW 20:06:53 52° W 20:11:45 10° NNW
Cosmos 2084 Rocket 4.0 20:06:06 10° NW 20:10:11 50° NE 20:14:18 10° ESE
CZ-4B R/B 3.8 20:04:49 10° S 20:10:26 63° WSW 20:16:03 10° NNW
Cosmos 2056 Rocket 3.9 20:05:07 10° SSW 20:10:30 72° WNW 20:15:54 10° NNE
Cosmos 1833 Rocket 2.7 20:05:53 10° SSW 20:11:30 88° SE 20:17:10 10° NNE
Cosmos 1110 Rocket 4.1 20:06:44 10° S 20:11:55 58° ESE 20:17:08 10° NNE
Cosmos 1802 Rocket 4.1 20:06:16 10° S 20:12:20 58° E 20:18:22 10° NNE
Cosmos 1624 Rocket 4.4 20:08:17 10° SW 20:13:27 70° WNW 20:18:38 10° NNE
Terra 2.6 20:10:05 10° S 20:14:39 50° W 20:19:14 10° NNW
Gbstr 26 Del rocket 3.5 20:09:43 10° W 20:14:51 55° SSW 20:18:53 11° SE
Cosmos 2360 Rocket 4.0 20:11:37 10° NNW 20:16:02 22° NNE 20:20:26 10° E
Sich 1 Rocket 3.5 20:13:00 10° S 20:17:21 79° E 20:21:45 10° NNE
SJ 16-02 4.2 20:17:41 10° WNW 20:19:07 12° W 20:20:34 10° WSW
YAOGAN 11 4.2 20:16:07 10° NNE 20:20:28 57° ESE 20:24:50 10° S
CZ-2C R/B 3.4 20:23:39 13° ESE 20:25:30 25° ENE 20:27:53 10° N
Cosmos 1743 2.0 20:22:44 10° N 20:25:46 83° ENE 20:28:34 11° SSE
Meteor 1-27 4.3 20:26:16 10° S 20:31:50 62° E 20:37:23 10° NNE
Cosmos 44 Rocket 3.6 20:27:13 10° SSW 20:32:05 48° ESE 20:37:05 10° NE
ISS -2.4 20:30:26 10° SSW 20:32:52 19° SE 20:35:05 11° ESE
Cosmos 1459 Rocket 4.1 20:27:07 10° SSW 20:33:22 82° W 20:39:35 10° N
Cosmos 2219 Rocket 4.2 20:29:19 10° NNW 20:33:31 21° NNE 20:37:44 10° E
Meteor 2-12 Rocket 4.4 20:28:47 10° N 20:34:53 77° ENE 20:40:49 11° SSE
Ariane Rocket 3.2 20:32:21 13° SSE 20:36:49 62° ENE 20:41:49 10° N
Cosmos 2100 Rocket 4.3 20:30:45 10° SSW 20:36:58 72° WNW 20:43:18 10° N
ATLAS 2AS CENTAUR R/B 3.1 20:33:57 10° WSW 20:40:51 68° NW 20:47:40 10° NE
Cosmos 2369 3.8 20:35:54 10° NNW 20:41:38 77° ENE 20:46:24 15° SE
SL-4 R/B 4.0 20:39:59 10° WSW 20:42:20 16° SW 20:44:42 10° S
BREEZE-M DEB (TANK) 4.5 20:39:40 10° WSW 20:42:33 28° SSW 20:47:10 14° SE
Spot 2 Rocket 4.1 20:37:59 10° S 20:42:53 53° W 20:47:49 10° NNW
Cosmos 2322 Rocket 3.6 20:38:57 10° NNW 20:43:55 30° NE 20:48:53 10° E
Cosmos 2082 Rocket 2.6 20:42:19 10° S 20:47:39 42° ESE 20:53:00 10° NE
Okean 2 Rocket 4.2 20:43:26 10° SSW 20:47:44 45° WNW 20:52:05 10° N
USA 305 2.5 20:44:29 10° WNW 20:48:34 71° SSW 20:51:08 19° ESE
Cosmos 1437 Rocket 4.2 20:47:59 16° ESE 20:49:06 18° E 20:51:35 10° NE
Cosmos 2151 3.6 20:46:24 10° N 20:50:18 39° ENE 20:52:53 18° SE
Cosmos 1626 Rocket 3.7 20:52:46 10° N 20:57:05 61° ENE 21:00:04 19° SSE
Cosmos 2233 Rocket 4.0 20:52:16 10° S 20:58:28 79° E 21:04:39 10° NNE
Cosmos 1607 4.1 20:52:41 10° SSW 20:58:36 50° ESE 21:04:36 10° NE
Cosmos 2228 2.8 20:55:36 10° S 20:59:39 81° E 21:03:47 10° NNE
USA 186 3.5 20:58:49 10° SSW 21:00:56 21° W 21:03:08 10° NW
Timation 1 Rocket 4.5 20:56:00 10° SW 21:02:01 81° NW 21:08:05 10° NNE
Okean O Rocket 3.0 20:58:20 10° SSW 21:02:15 34° W 21:06:11 10° NNW
Tsikada Rocket 4.1 20:57:01 10° NNW 21:03:14 78° W 21:08:51 13° S
Cosmos 2278 4.4 20:57:48 10° NNW 21:03:20 46° NE 21:07:47 15° ESE
CZ-4C R/B 1.8 21:04:55 10° SW 21:09:16 86° SE 21:14:58 10° NE
Cosmos 1725 Rocket 4.4 21:03:23 10° SSW 21:09:38 66° WNW 21:15:53 10° N
Cosmos 1992 Rocket 4.4 21:05:58 16° S 21:09:49 44° ESE 21:14:45 10° NE
Meteor 1-20 Rocket 4.3 21:04:23 10° N 21:09:56 69° ENE 21:13:53 20° SSE
Cosmos 1452 Rocket 3.7 21:05:01 10° SSW 21:10:15 78° WNW 21:15:31 10° NNE
COSMOS 2406 4.0 21:07:29 18° SSE 21:10:50 33° ESE 21:15:54 10° NE
SL-16 R/B 2.5 21:05:15 10° NNW 21:10:54 60° NE 21:14:58 19° SE
Helios 1A 4.3 21:08:59 10° NE 21:12:02 21° E 21:13:02 19° ESE
ATLAS 3B R/B 4.1 21:07:54 10° NW 21:14:33 33° WSW 21:20:47 10° S
Okean-O 4.4 21:11:30 10° SSW 21:15:14 27° W 21:19:00 10° NW
Cosmos 1805 3.9 21:13:56 10° N 21:16:54 30° ENE 21:18:02 24° ESE
CZ-4B R/B 3.9 21:19:07 16° S 21:22:48 53° WSW 21:27:30 10° NNW
Cosmos 2333 Rocket 2.4 21:18:08 10° NNW 21:23:49 66° NE 21:27:39 21° SE
Cosmos 1455 Rocket 4.3 21:22:00 10° SW 21:26:09 40° WNW 21:30:20 10° N
Cosmos 1302 Rocket 4.0 21:22:45 10° SSW 21:27:55 86° WNW 21:33:09 10° NNE
Cosmos 2098 Rocket 4.0 21:25:32 24° SE 21:28:02 39° E 21:32:18 10° NNE
Meteor 1-25 Rocket 4.3 21:23:14 10° N 21:28:59 74° ENE 21:32:32 24° SSE
Cosmos 1980 Rocket 3.6 21:29:20 10° NW 21:34:11 29° WSW 21:38:33 12° SSW
CZ-4B R/B 4.3 21:33:11 13° SSW 21:35:28 25° W 21:38:20 10° NW
Cosmos 2061 Rocket 4.2 21:30:17 10° SSW 21:36:28 71° WNW 21:42:47 10° N
Cosmos 1782 4.2 21:33:45 10° SW 21:36:55 31° WNW 21:40:08 10° N
Cosmos 1544 Rocket 3.5 21:35:33 22° S 21:38:22 87° E 21:42:44 10° NNE
Cosmos 724 4.4 21:33:13 10° SW 21:39:15 85° NW 21:45:12 10° NE
NOSS 3-3 (A) 3.7 21:34:58 10° SSW 21:40:06 58° SE 21:46:17 10° NE
DNEPR-1 R/B 4.3 21:39:51 10° NW 21:45:04 75° NE 21:49:21 21° SE
Cosmos 1933 3.1 21:44:20 31° S 21:46:01 80° E 21:49:51 10° NNE
Cosmos 2084 Rocket 4.3 21:44:58 10° WNW 21:48:49 35° SW 21:50:19 27° SSW
Okean 1 4.0 21:49:59 29° ESE 21:50:28 30° E 21:53:38 10° NNE
Cosmos 1758 Rocket 4.3 21:46:55 10° NNW 21:51:06 46° W 21:53:42 21° SSW
Helios 1B rocket 2.3 21:51:51 37° SE 21:52:55 56° ENE 21:56:23 10° N
CZ-2C R/B 4.1 21:55:17 16° WSW 21:56:18 19° W 21:58:23 10° NW
Cosmos 1464 Rocket 4.0 21:53:23 25° S 21:57:02 67° E 22:03:10 10° NNE
Cosmos 1513 Rocket 4.5 21:56:21 19° SSW 22:00:57 86° W 22:07:10 10° N
Cosmos 2360 Rocket 2.3 21:55:19 10° NNW 22:01:01 72° NE 22:04:14 27° SE
Meteor 2-10 4.2 21:58:10 10° NNW 22:03:54 88° ENE 22:06:57 29° SSE
Cosmos 1825 Rocket 3.4 22:03:11 10° N 22:07:32 84° E 22:09:11 38° SSE
NOSS 3-3 (C) 3.7 22:02:52 11° SW 22:07:59 72° SE 22:14:25 10° NE
Geosat 3.9 22:03:07 10° NNE 22:08:10 88° NW 22:12:24 15° SW
ALOS 2 3.5 22:06:32 25° ESE 22:08:27 39° ENE 22:12:33 10° N
ARIANE 5 R/B 3.2 22:07:11 29° ESE 22:09:03 47° ENE 22:13:20 10° N
ISS -3.1 22:05:56 10° WSW 22:08:14 37° SW 22:08:14 37° SW
Cosmos 1953 Rocket 3.9 22:04:53 10° N 22:09:12 54° ENE 22:10:47 34° SE
Cosmos 1072 Rocket 4.5 22:08:18 24° S 22:12:18 89° E 22:18:40 10° N
Cosmos 2058 Rocket 4.2 22:11:46 25° ESE 22:12:46 28° E 22:16:28 10° NNE
USA 305 4.0 22:10:22 10° W 22:13:09 21° SW 22:13:09 21° SW
BREEZE-M R/B 4.2 22:07:39 10° W 22:16:15 75° S 22:21:55 10° ESE
Cosmos 1602 Rocket 4.3 22:12:40 10° NNW 22:16:45 43° W 22:18:42 26° SSW
Cosmos 1092 Rocket 4.2 22:11:32 10° N 22:17:38 61° ENE 22:20:51 29° SE
Cosmos 2219 Rocket 2.4 22:12:56 10° NNW 22:18:35 64° NE 22:21:48 26° SE
CZ-2C R/B 4.2 22:14:44 10° NNE 22:18:57 42° E 22:20:05 35° SE
DEBRIS 4.3 22:15:27 10° W 22:19:37 69° S 22:35:32 10° E
NOSS 3-4 (A) 3.7 22:14:44 10° NW 22:21:17 80° SW 22:26:01 26° SE
NOSS 3-4 (C) 3.7 22:15:20 10° NW 22:21:55 81° SW 22:26:40 25° SE
Cosmos 1437 Rocket 3.6 22:21:47 24° SW 22:23:30 41° WNW 22:26:55 10° N
Cosmos 540 Rocket 4.3 22:23:21 30° SE 22:24:37 34° ESE 22:29:13 10° NE
Cosmos 1461 2.9 22:26:32 44° ESE 22:26:32 44° ESE 22:29:54 10° NE
Cosmos 2322 Rocket 2.2 22:22:50 10° NW 22:28:30 74° WSW 22:31:03 34° SSE
Cosmos 2034 Rocket 4.0 22:27:37 29° S 22:31:04 79° E 22:37:27 10° NNE
Cosmos 2082 Rocket 3.2 22:26:13 10° WSW 22:31:43 46° NW 22:37:14 10° NNE
ATLAS 2AS CENTAUR R/B 4.3 22:26:34 10° WNW 22:32:50 36° NNW 22:39:02 10° NE
Cosmos 220 Rocket 3.7 22:32:36 43° SSW 22:33:53 86° ESE 22:38:01 10° NNE
Cosmos 1536 2.9 22:33:48 10° N 22:37:25 53° ENE 22:38:06 45° ESE
Cosmos 1707 3.0 22:38:21 35° ENE 22:38:21 35° ENE 22:40:33 10° NNE
USA 234 3.4 22:31:59 10° ENE 22:38:21 51° SE 22:42:49 20° SSW
ACS3 Solar Sail 3.9 22:38:23 10° NE 22:40:51 13° ENE 22:43:19 10° ESE
COSMOS 2428 3.8 22:36:36 10° NNW 22:42:00 41° NE 22:46:33 14° ESE
Cosmos 2237 Rocket 4.1 22:40:27 10° NNW 22:45:11 26° NE 22:49:52 10° E
Helios 1A 3.7 22:43:09 10° N 22:46:56 45° WNW 22:48:44 26° SW
Cosmos 1503 Rocket 4.1 22:42:00 10° NNW 22:47:09 63° WSW 22:49:02 38° S
Cosmos 1777 Rocket 4.4 22:42:19 10° NNW 22:47:23 50° WSW 22:49:16 34° SSW
Cosmos 1763 Rocket 3.7 22:45:39 38° SSE 22:47:26 56° ESE 22:52:36 10° NNE
Cosmos 2278 4.4 22:42:04 10° NW 22:47:26 42° WSW 22:49:38 29° SSW
Cosmos-2242 2.9 22:47:28 49° SSE 22:48:24 67° E 22:52:30 10° NNE
CZ-2C R/B 4.2 22:44:41 10° NNE 22:49:51 35° E 22:51:56 27° SE
Cosmos 990 Rocket 3.9 22:45:23 10° NNW 22:50:33 80° WSW 22:52:30 39° SSE
ARGOS Delta rocket 4.1 22:49:23 10° NNE 22:54:20 60° E 22:56:07 38° SSE
SL-16 R/B 3.4 22:49:47 10° NW 22:54:40 30° WSW 22:56:47 24° SW
Cosmos 1606 Rocket 4.2 22:52:45 28° SW 22:54:42 48° WNW 22:58:55 10° N
COSMOS 2406 3.8 22:49:26 11° SW 22:54:52 57° NW 23:00:34 10° NNE
USA 290 2.3 22:56:48 61° ENE 22:56:48 61° ENE 22:59:38 10° NNE
Cosmos 1354 Rocket 4.0 22:52:09 10° NNW 22:57:25 73° WSW 22:59:19 39° S
CZ-4C R/B 3.7 22:53:35 10° W 22:58:07 36° NNW 23:03:55 10° NE
Cosmos 1634 Rocket 4.0 22:57:50 34° S 23:00:40 75° E 23:06:52 10° NNE
Cosmos 1766 2.8 22:58:03 10° NNW 23:01:15 63° W 23:01:17 63° WSW
Cosmos 1470 2.7 23:00:44 10° N 23:03:58 50° ENE 23:04:12 48° E
Cosmos 2279 Rocket 4.2 23:01:48 33° SSE 23:04:33 59° E 23:10:43 10° NNE
SeaSat 1 2.8 23:03:53 26° ESE 23:06:35 61° NE 23:11:25 10° NNW
Cosmos 2333 Rocket 3.5 23:02:58 10° NW 23:07:43 28° WSW 23:09:39 23° SW
Cosmos 1726 Rocket 4.1 23:06:20 32° SW 23:07:47 46° WNW 23:11:43 10° N
Cosmos 2221 3.3 23:09:57 33° ESE 23:10:43 37° E 23:14:34 10° NNE
Meteor 2-2 Rocket 4.2 23:10:21 36° SSW 23:12:49 90° E 23:18:35 10° NNE
Cosmos 1842 3.1 23:13:51 53° E 23:13:51 53° E 23:16:46 10° NNE
BREEZE-M DEB (TANK) 3.6 23:10:26 10° W 23:17:46 54° S 23:22:40 10° ESE
CZ-2C R/B 2.8 23:16:22 32° SE 23:18:49 66° ENE 23:24:01 10° N
Cosmos 1833 4.1 23:17:41 35° SSW 23:20:08 78° ESE 23:25:48 10° NNE
NOSS 0 Rocket 4.3 23:17:12 10° NNW 23:23:21 60° NE 23:28:04 17° SE
KORONAS-FOTON 3.4 23:25:14 71° WSW 23:25:26 75° WNW 23:28:50 10° N
Helios 1B rocket 4.3 23:25:48 14° W 23:26:14 14° W 23:28:16 10° NW
SAR-Lupe-2 4.1 23:26:37 40° W 23:26:37 40° W 23:29:45 10° NNW
Cosmos 1975 2.5 23:24:06 10° N 23:27:47 76° E 23:28:17 63° SE
Aureole 1 Rocket 3.8 23:24:22 10° NNW 23:29:32 67° WSW 23:32:03 36° S
Cosmos 2266 Rocket 4.1 23:25:25 10° N 23:31:28 68° ENE 23:34:28 31° SSE
Cosmos 2322 3.7 23:26:35 10° NNW 23:32:20 84° ENE 23:35:16 30° SE
Cosmos 1812 Rocket 4.0 23:34:01 40° SE 23:35:06 50° E 23:39:22 10° NNE
Cosmos 2297 Rocket 3.8 23:33:58 17° SE 23:35:46 20° E 23:39:45 10° NE
Cosmos 44 3.4 23:30:30 10° NW 23:35:56 75° SW 23:38:07 36° SSE
Cosmos 1271 Rocket 2.2 23:38:07 78° SSE 23:38:16 83° ESE 23:41:42 10° NNE
Cosmos 372 Rocket 3.9 23:36:49 10° NNW 23:41:55 67° WSW 23:43:34 42° S
RESURS DK-1 2.4 23:39:00 10° NNW 23:43:00 72° NE 23:44:13 42° SE
Cosmos 1937 Rocket 3.5 23:38:04 10° NNW 23:43:16 76° ENE 23:45:41 32° SE
Cosmos 2360 Rocket 3.5 23:39:59 10° NW 23:44:30 25° WSW 23:45:58 22° SW
ALOS 2 3.7 23:43:55 27° WSW 23:44:52 30° W 23:48:46 10° NNW
ARIANE 5 R/B 4.0 23:44:33 23° WSW 23:45:34 25° W 23:49:16 10° NW
ISS-0.423:50:53E23:50:53E23:41:23W
Meteor 1-11 Rocket 3.7 23:41:10 10° NNW 23:46:58 83° ENE 23:49:32 34° SSE
GP-B 3.0 23:43:39 10° N 23:48:03 89° E 23:49:14 49° S
Cosmos 2058 Rocket 4.0 23:48:53 28° WSW 23:50:29 38° WNW 23:54:34 10° N
Cosmos 468 Rocket 4.0 23:51:07 37° SSW 23:53:16 88° WNW 23:58:34 10° NNE
